Time,TemperatureF,DewpointF,PressureIn,WindDirection,WindDirectionDegrees,WindSpeedMPH,WindSpeedGustMPH,Humidity,HourlyPrecipIn,Conditions,Clouds,dailyrainin,SoftwareType,DateUTC
2013-11-08 00:00:00,36.4,33.2,30.22,West,259,6.0,11.0,88,0.00,,---,0.00,VWS V14.01,2013-11-08 05:00:00,
2013-11-08 00:30:00,35.9,33.0,30.21,West,267,7.0,10.0,89,0.00,,---,0.00,VWS V14.01,2013-11-08 05:30:00,
2013-11-08 01:00:00,35.1,32.5,30.22,West,274,5.0,9.0,90,0.00,,---,0.00,VWS V14.01,2013-11-08 06:00:00,
2013-11-08 01:30:00,34.4,31.5,30.22,WSW,255,5.0,9.0,89,0.00,,---,0.00,VWS V14.01,2013-11-08 06:30:00,
2013-11-08 02:00:00,34.3,31.4,30.22,West,276,4.0,8.0,89,0.00,,---,0.00,VWS V14.01,2013-11-08 07:00:00,
2013-11-08 02:30:00,33.5,30.9,30.23,SW,229,6.0,8.0,90,0.00,,---,0.00,VWS V14.01,2013-11-08 07:30:00,
2013-11-08 03:00:00,33.4,31.3,30.22,WNW,283,7.0,8.0,92,0.00,,---,0.00,VWS V14.01,2013-11-08 08:00:00,
2013-11-08 03:30:00,33.2,31.4,30.23,West,275,6.0,9.0,93,0.00,,---,0.00,VWS V14.01,2013-11-08 08:30:00,
2013-11-08 04:00:00,32.9,31.1,30.23,WSW,255,7.0,8.0,93,0.00,,---,0.00,VWS V14.01,2013-11-08 09:00:00,
2013-11-08 04:30:00,32.4,30.6,30.24,WNW,293,4.0,8.0,93,0.00,,---,0.00,VWS V14.01,2013-11-08 09:30:00,
2013-11-08 05:00:00,32.3,30.8,30.24,West,280,3.0,7.0,94,0.00,,---,0.00,VWS V14.01,2013-11-08 10:00:00,
2013-11-08 05:30:00,32.0,30.5,30.26,West,269,5.0,8.0,94,0.00,,---,0.00,VWS V14.01,2013-11-08 10:30:00,
2013-11-08 06:00:00,31.7,30.2,30.27,West,281,5.0,7.0,94,0.00,,---,0.00,VWS V14.01,2013-11-08 11:00:00,
2013-11-08 06:30:00,31.7,30.2,30.28,WNW,286,4.0,7.0,94,0.00,,---,0.00,VWS V14.01,2013-11-08 11:30:00,
2013-11-08 07:00:00,31.6,30.3,30.29,WNW,294,4.0,7.0,95,0.00,,---,0.00,VWS V14.01,2013-11-08 12:00:00,
2013-11-08 07:30:00,31.1,29.6,30.30,WNW,283,3.0,7.0,94,0.00,,---,0.00,VWS V14.01,2013-11-08 12:30:00,
2013-11-08 08:00:00,31.2,29.7,30.32,West,264,3.0,5.0,94,0.00,,---,0.00,VWS V14.01,2013-11-08 13:00:00,
2013-11-08 08:30:00,31.8,30.3,30.32,WSW,256,2.0,5.0,94,0.00,,---,0.00,VWS V14.01,2013-11-08 13:30:00,
2013-11-08 09:00:00,33.1,31.3,30.34,West,273,3.0,5.0,93,0.00,,---,0.00,VWS V14.01,2013-11-08 14:00:00,
2013-11-08 09:30:00,35.3,31.8,30.34,WNW,298,4.0,6.0,87,0.00,,---,0.00,VWS V14.01,2013-11-08 14:30:00,
2013-11-08 10:00:00,36.9,32.5,30.34,NW,321,4.0,8.0,84,0.00,,---,0.00,VWS V14.01,2013-11-08 15:00:00,
2013-11-08 10:30:00,38.2,32.0,30.34,WNW,295,4.0,8.0,78,0.00,,---,0.00,VWS V14.01,2013-11-08 15:30:00,
2013-11-08 11:00:00,39.1,31.9,30.34,NW,321,0.0,8.0,75,0.00,,---,0.00,VWS V14.01,2013-11-08 16:00:00,
2013-11-08 11:30:00,39.9,30.2,30.34,NW,323,1.0,8.0,68,0.00,,---,0.00,VWS V14.01,2013-11-08 16:30:00,
2013-11-08 12:00:00,41.1,31.7,30.33,WNW,301,2.0,9.0,69,0.00,,---,0.00,VWS V14.01,2013-11-08 17:00:00,
2013-11-08 12:30:00,42.0,32.6,30.31,West,267,3.0,9.0,69,0.00,,---,0.00,VWS V14.01,2013-11-08 17:30:00,
2013-11-08 13:00:00,43.3,32.7,30.30,WSW,253,2.0,6.0,66,0.00,,---,0.00,VWS V14.01,2013-11-08 18:00:00,
2013-11-08 13:30:00,44.2,33.2,30.29,SW,229,3.0,10.0,65,0.00,,---,0.00,VWS V14.01,2013-11-08 18:30:00,
2013-11-08 14:00:00,45.2,33.4,30.28,West,269,1.0,12.0,63,0.00,,---,0.00,VWS V14.01,2013-11-08 19:00:00,
2013-11-08 14:30:00,45.0,33.6,30.27,WNW,284,2.0,8.0,64,0.00,,---,0.00,VWS V14.01,2013-11-08 19:30:00,
2013-11-08 15:00:00,46.9,35.4,30.26,SW,214,3.0,9.0,64,0.00,,---,0.00,VWS V14.01,2013-11-08 20:00:00,
2013-11-08 15:30:00,47.2,34.0,30.25,West,262,4.0,9.0,60,0.00,,---,0.00,VWS V14.01,2013-11-08 20:30:00,
2013-11-08 16:00:00,47.8,34.6,30.25,WSW,248,2.0,8.0,60,0.00,,---,0.00,VWS V14.01,2013-11-08 21:00:00,
2013-11-08 16:30:00,46.6,35.1,30.24,West,277,3.0,9.0,64,0.00,,---,0.00,VWS V14.01,2013-11-08 21:30:00,
2013-11-08 17:00:00,45.8,33.5,30.24,SW,229,1.0,6.0,62,0.00,,---,0.00,VWS V14.01,2013-11-08 22:00:00,
2013-11-08 17:30:00,43.7,33.1,30.23,SSW,211,0.0,2.0,66,0.00,,---,0.00,VWS V14.01,2013-11-08 22:30:00,
2013-11-08 18:00:00,41.9,33.9,30.24,SE,129,0.0,1.0,73,0.00,,---,0.00,VWS V14.01,2013-11-08 23:00:00,
2013-11-08 18:30:00,40.3,33.7,30.23,SE,125,0.0,1.0,77,0.00,,---,0.00,VWS V14.01,2013-11-08 23:30:00,
2013-11-08 19:00:00,39.4,33.4,30.22,ESE,114,1.0,2.0,79,0.00,,---,0.00,VWS V14.01,2013-11-09 00:00:00,
2013-11-08 19:30:00,40.0,34.0,30.21,ESE,110,1.0,2.0,79,0.00,,---,0.00,VWS V14.01,2013-11-09 00:30:00,
2013-11-08 20:00:00,40.5,34.5,30.20,ESE,115,1.0,2.0,79,0.00,,---,0.00,VWS V14.01,2013-11-09 01:00:00,
2013-11-08 20:30:00,40.8,33.8,30.18,SE,141,1.0,2.0,76,0.00,,---,0.00,VWS V14.01,2013-11-09 01:30:00,
2013-11-08 21:00:00,41.6,33.6,30.17,East,101,1.0,4.0,73,0.00,,---,0.00,VWS V14.01,2013-11-09 02:00:00,
2013-11-08 21:30:00,42.1,33.7,30.18,ESE,117,1.0,4.0,72,0.00,,---,0.00,VWS V14.01,2013-11-09 02:30:00,
2013-11-08 22:00:00,42.2,33.5,30.18,SE,132,1.0,4.0,71,0.00,,---,0.00,VWS V14.01,2013-11-09 03:00:00,
2013-11-08 22:30:00,42.3,33.6,30.17,ESE,122,1.0,5.0,71,0.00,,---,0.00,VWS V14.01,2013-11-09 03:30:00,
2013-11-08 23:00:00,42.7,33.2,30.15,ESE,113,2.0,5.0,69,0.00,,---,0.00,VWS V14.01,2013-11-09 04:00:00,
2013-11-08 23:30:00,42.6,33.2,30.15,East,94,2.0,6.0,69,0.00,,---,0.00,VWS V14.01,2013-11-09 04:30:00,